TimeEST,TemperatureF,Dew PointF,Humidity,Sea Level PressureIn,VisibilityMPH,Wind Direction,Wind SpeedMPH,Gust SpeedMPH,PrecipitationIn,Events,Conditions,WindDirDegrees,DateUTC
12:15 AM,19.4,15.8,86,30.01,10.0,Calm,Calm,-,N/A,,Unknown,0,2013-01-02 05:15:00
12:35 AM,19.4,15.8,86,30.02,10.0,NW,3.5,-,N/A,,Unknown,310,2013-01-02 05:35:00
12:55 AM,19.4,15.8,86,30.01,10.0,Calm,Calm,-,N/A,,Unknown,0,2013-01-02 05:55:00
1:15 AM,19.4,15.8,86,30.01,10.0,Calm,Calm,-,N/A,,Unknown,0,2013-01-02 06:15:00
1:35 AM,19.4,15.8,86,30.01,10.0,Calm,Calm,-,N/A,,Unknown,0,2013-01-02 06:35:00
1:55 AM,19.4,15.8,86,30.02,10.0,Calm,Calm,-,N/A,,Unknown,0,2013-01-02 06:55:00
2:15 AM,19.4,15.8,86,30.01,10.0,Calm,Calm,-,N/A,,Unknown,0,2013-01-02 07:15:00
2:35 AM,19.4,15.8,86,30.02,10.0,Calm,Calm,-,N/A,,Unknown,0,2013-01-02 07:35:00
2:55 AM,17.6,14.0,86,30.02,10.0,Calm,Calm,-,N/A,,Unknown,0,2013-01-02 07:55:00
3:15 AM,17.6,14.0,86,30.03,10.0,Calm,Calm,-,N/A,,Unknown,0,2013-01-02 08:15:00
3:35 AM,17.6,15.8,93,30.04,10.0,Calm,Calm,-,N/A,,Unknown,0,2013-01-02 08:35:00
3:55 AM,17.6,15.8,93,30.04,10.0,Calm,Calm,-,N/A,,Unknown,0,2013-01-02 08:55:00
4:15 AM,17.6,14.0,86,30.03,10.0,Calm,Calm,-,N/A,,Unknown,0,2013-01-02 09:15:00
4:35 AM,17.6,14.0,86,30.03,10.0,Calm,Calm,-,N/A,,Unknown,0,2013-01-02 09:35:00
4:55 AM,17.6,14.0,86,30.03,10.0,Calm,Calm,-,N/A,,Unknown,0,2013-01-02 09:55:00
5:15 AM,17.6,14.0,86,30.03,10.0,Calm,Calm,-,N/A,,Unknown,0,2013-01-02 10:15:00
5:35 AM,17.6,15.8,93,30.03,10.0,Calm,Calm,-,N/A,,Unknown,0,2013-01-02 10:35:00
5:55 AM,17.6,15.8,93,30.03,10.0,West,5.8,-,N/A,,Unknown,270,2013-01-02 10:55:00
6:15 AM,17.6,15.8,93,30.05,10.0,WNW,5.8,-,N/A,,Unknown,290,2013-01-02 11:15:00
6:35 AM,17.6,15.8,93,30.06,7.0,WNW,4.6,-,N/A,,Unknown,290,2013-01-02 11:35:00
6:55 AM,17.6,15.8,93,30.06,10.0,WNW,4.6,-,N/A,,Unknown,300,2013-01-02 11:55:00
7:15 AM,17.6,15.8,93,30.07,10.0,NW,4.6,-,N/A,,Unknown,310,2013-01-02 12:15:00
7:35 AM,17.6,15.8,93,30.08,10.0,WNW,5.8,-,N/A,,Unknown,300,2013-01-02 12:35:00
7:55 AM,19.4,15.8,86,30.08,10.0,WNW,6.9,-,N/A,,Unknown,300,2013-01-02 12:55:00
8:15 AM,19.4,14.0,80,30.09,10.0,WNW,5.8,-,N/A,,Unknown,300,2013-01-02 13:15:00
8:35 AM,19.4,14.0,80,30.10,10.0,WNW,6.9,-,N/A,,Unknown,290,2013-01-02 13:35:00
8:55 AM,19.4,14.0,80,30.10,10.0,West,8.1,-,N/A,,Unknown,280,2013-01-02 13:55:00
9:15 AM,19.4,14.0,80,30.10,10.0,WNW,8.1,-,N/A,,Unknown,290,2013-01-02 14:15:00
9:35 AM,19.4,14.0,80,30.10,10.0,West,8.1,-,N/A,,Unknown,280,2013-01-02 14:35:00
9:55 AM,19.4,14.0,80,30.11,10.0,West,6.9,-,N/A,,Unknown,280,2013-01-02 14:55:00
10:15 AM,19.4,14.0,80,30.12,10.0,NW,10.4,-,N/A,,Unknown,320,2013-01-02 15:15:00
10:35 AM,19.4,14.0,80,30.12,10.0,WNW,8.1,-,N/A,,Unknown,300,2013-01-02 15:35:00
10:55 AM,19.4,15.8,86,30.11,10.0,NW,6.9,-,N/A,,Unknown,320,2013-01-02 15:55:00
11:15 AM,21.2,15.8,80,30.11,10.0,NW,8.1,-,N/A,,Unknown,310,2013-01-02 16:15:00
11:35 AM,21.2,15.8,80,30.10,10.0,NW,8.1,-,N/A,,Unknown,310,2013-01-02 16:35:00
11:55 AM,21.2,15.8,80,30.11,10.0,WNW,11.5,-,N/A,,Unknown,290,2013-01-02 16:55:00
12:15 PM,21.2,15.8,80,30.10,10.0,WNW,10.4,-,N/A,,Unknown,290,2013-01-02 17:15:00
12:35 PM,23.0,15.8,74,30.10,10.0,WNW,10.4,16.1,N/A,,Unknown,300,2013-01-02 17:35:00
12:55 PM,23.0,15.8,74,30.11,10.0,West,12.7,18.4,N/A,,Unknown,270,2013-01-02 17:55:00
1:15 PM,24.8,15.8,69,30.10,10.0,West,11.5,-,N/A,,Unknown,270,2013-01-02 18:15:00
1:35 PM,24.8,15.8,69,30.11,10.0,West,10.4,-,N/A,,Unknown,280,2013-01-02 18:35:00
1:55 PM,24.8,15.8,69,30.10,10.0,West,11.5,-,N/A,,Unknown,260,2013-01-02 18:55:00
2:15 PM,24.8,15.8,69,30.10,10.0,West,11.5,-,N/A,,Unknown,260,2013-01-02 19:15:00
2:35 PM,24.8,15.8,69,30.11,10.0,West,8.1,-,N/A,,Unknown,280,2013-01-02 19:35:00
2:55 PM,24.8,15.8,69,30.11,10.0,West,10.4,-,N/A,,Unknown,280,2013-01-02 19:55:00
3:15 PM,24.8,15.8,69,30.10,10.0,WNW,5.8,10.4,N/A,,Unknown,300,2013-01-02 20:15:00
3:35 PM,24.8,15.8,69,30.10,10.0,West,8.1,-,N/A,,Unknown,280,2013-01-02 20:35:00
3:55 PM,24.8,15.8,69,30.11,10.0,WNW,6.9,-,N/A,,Unknown,290,2013-01-02 20:55:00
4:15 PM,24.8,15.8,69,30.12,10.0,West,8.1,-,N/A,,Unknown,270,2013-01-02 21:15:00
4:35 PM,24.8,15.8,69,30.12,10.0,WNW,5.8,-,N/A,,Unknown,290,2013-01-02 21:35:00
4:55 PM,23.0,15.8,74,30.13,10.0,NW,5.8,-,N/A,,Unknown,310,2013-01-02 21:55:00
5:15 PM,21.2,15.8,80,30.12,10.0,NW,4.6,-,N/A,,Unknown,310,2013-01-02 22:15:00
5:35 PM,21.2,15.8,80,30.12,10.0,Calm,Calm,-,N/A,,Unknown,0,2013-01-02 22:35:00
5:55 PM,19.4,15.8,86,30.13,10.0,Calm,Calm,-,N/A,,Unknown,0,2013-01-02 22:55:00
6:15 PM,19.4,15.8,86,30.13,10.0,Calm,Calm,-,N/A,,Unknown,0,2013-01-02 23:15:00
6:35 PM,17.6,15.8,93,30.13,10.0,Calm,Calm,-,N/A,,Unknown,0,2013-01-02 23:35:00
6:55 PM,17.6,15.8,93,30.14,10.0,Calm,Calm,-,N/A,,Unknown,0,2013-01-02 23:55:00
7:15 PM,17.6,15.8,93,30.14,10.0,Calm,Calm,-,N/A,,Unknown,0,2013-01-03 00:15:00
7:35 PM,15.8,15.8,100,30.15,10.0,Calm,Calm,-,N/A,,Unknown,0,2013-01-03 00:35:00
7:55 PM,15.8,15.8,100,30.15,10.0,Calm,Calm,-,N/A,,Unknown,0,2013-01-03 00:55:00
8:15 PM,14.0,14.0,100,30.15,10.0,Calm,Calm,-,N/A,,Unknown,0,2013-01-03 01:15:00
8:35 PM,12.2,12.2,100,30.16,10.0,Calm,Calm,-,N/A,,Unknown,0,2013-01-03 01:35:00
8:55 PM,12.2,12.2,100,30.16,10.0,Calm,Calm,-,N/A,,Unknown,0,2013-01-03 01:55:00
9:15 PM,12.2,12.2,100,30.16,10.0,Calm,Calm,-,N/A,,Unknown,0,2013-01-03 02:15:00
9:35 PM,12.2,12.2,100,30.17,10.0,Calm,Calm,-,N/A,,Unknown,0,2013-01-03 02:35:00
9:55 PM,12.2,12.2,100,30.17,10.0,Calm,Calm,-,N/A,,Unknown,0,2013-01-03 02:55:00
10:15 PM,12.2,12.2,100,30.17,10.0,Calm,Calm,-,N/A,,Unknown,0,2013-01-03 03:15:00
10:35 PM,12.2,12.2,100,30.18,10.0,Calm,Calm,-,N/A,,Unknown,0,2013-01-03 03:35:00
10:55 PM,12.2,12.2,100,30.18,10.0,Calm,Calm,-,N/A,,Unknown,0,2013-01-03 03:55:00
11:15 PM,12.2,12.2,100,30.19,10.0,Calm,Calm,-,N/A,,Unknown,0,2013-01-03 04:15:00
11:35 PM,10.4,10.4,100,30.17,10.0,Calm,Calm,-,N/A,,Unknown,0,2013-01-03 04:35:00
11:55 PM,10.4,10.4,100,30.16,10.0,Calm,Calm,-,N/A,,Unknown,0,2013-01-03 04:55:00